TimeCDT,TemperatureF,Dew PointF,Humidity,Sea Level PressureIn,VisibilityMPH,Wind Direction,Wind SpeedMPH,Gust SpeedMPH,PrecipitationIn,Events,Conditions,WindDirDegrees,DateUTC
12:15 AM,42.8,35.6,76,29.71,10.0,WSW,6.9,-,N/A,,Clear,240,2012-10-09 05:15:00
12:35 AM,42.8,35.6,76,29.71,10.0,SW,4.6,-,N/A,,Scattered Clouds,220,2012-10-09 05:35:00
12:55 AM,41.0,35.6,81,29.71,10.0,SW,5.8,-,N/A,,Scattered Clouds,220,2012-10-09 05:55:00
1:15 AM,39.2,33.8,81,29.72,10.0,SW,5.8,-,N/A,,Scattered Clouds,220,2012-10-09 06:15:00
1:55 AM,39.2,33.8,81,29.72,10.0,SSW,5.8,-,N/A,,Clear,210,2012-10-09 06:55:00
2:15 AM,37.4,33.8,87,29.72,10.0,SSW,4.6,-,N/A,,Clear,210,2012-10-09 07:15:00
3:15 AM,35.6,33.8,93,29.71,10.0,SW,3.5,-,N/A,,Clear,220,2012-10-09 08:15:00
3:35 AM,35.6,32.0,87,29.71,10.0,Calm,Calm,-,N/A,,Clear,0,2012-10-09 08:35:00
3:55 AM,37.4,33.8,87,29.71,10.0,SW,5.8,-,N/A,,Clear,230,2012-10-09 08:55:00
4:15 AM,37.4,33.8,87,29.71,10.0,SW,5.8,-,N/A,,Scattered Clouds,230,2012-10-09 09:15:00
4:35 AM,37.4,33.8,87,29.71,10.0,SW,4.6,-,N/A,,Scattered Clouds,230,2012-10-09 09:35:00
4:55 AM,37.4,33.8,87,29.71,10.0,SW,3.5,-,N/A,,Scattered Clouds,220,2012-10-09 09:55:00
5:15 AM,37.4,33.8,87,29.71,10.0,South,3.5,-,N/A,,Scattered Clouds,190,2012-10-09 10:15:00
5:35 AM,37.4,33.8,87,29.71,10.0,SSW,3.5,-,N/A,,Overcast,200,2012-10-09 10:35:00
5:55 AM,37.4,33.8,87,29.71,10.0,SW,3.5,-,N/A,,Overcast,220,2012-10-09 10:55:00
6:15 AM,39.2,35.6,87,29.71,10.0,WSW,4.6,-,N/A,,Overcast,250,2012-10-09 11:15:00
6:35 AM,41.0,35.6,81,29.71,10.0,WSW,4.6,-,N/A,,Overcast,250,2012-10-09 11:35:00
6:55 AM,37.4,33.8,87,29.71,10.0,WSW,3.5,-,N/A,,Overcast,250,2012-10-09 11:55:00
7:15 AM,39.2,35.6,87,29.71,10.0,WSW,4.6,-,N/A,,Overcast,250,2012-10-09 12:15:00
7:35 AM,41.0,35.6,81,29.71,10.0,WSW,4.6,-,N/A,,Overcast,250,2012-10-09 12:35:00
7:55 AM,41.0,35.6,81,29.72,10.0,WSW,4.6,-,N/A,,Overcast,250,2012-10-09 12:55:00
8:15 AM,41.0,35.6,81,29.72,10.0,West,6.9,-,N/A,,Drizzle,270,2012-10-09 13:15:00
8:35 AM,42.8,35.6,76,29.73,10.0,WNW,16.1,24.2,N/A,Rain,Light Rain,290,2012-10-09 13:35:00
8:55 AM,41.0,35.6,81,29.74,10.0,West,12.7,20.7,N/A,Rain,Rain,280,2012-10-09 13:55:00
9:15 AM,41.0,35.6,81,29.75,10.0,West,13.8,19.6,N/A,Rain,Rain,280,2012-10-09 14:15:00
9:35 AM,41.0,35.6,81,29.75,10.0,West,8.1,-,N/A,Rain,Light Rain,270,2012-10-09 14:35:00
9:55 AM,39.2,35.6,87,29.74,10.0,WSW,8.1,-,N/A,Rain,Rain,250,2012-10-09 14:55:00
10:15 AM,41.0,35.6,81,29.75,10.0,West,10.4,-,N/A,Rain,Light Rain,260,2012-10-09 15:15:00
10:35 AM,39.2,35.6,87,29.75,7.0,West,11.5,-,N/A,Rain,Light Rain,270,2012-10-09 15:35:00
10:55 AM,39.2,33.8,81,29.74,10.0,SW,8.1,-,N/A,,Light Drizzle,230,2012-10-09 15:55:00
11:15 AM,39.2,35.6,87,29.73,10.0,SW,8.1,-,N/A,,Overcast,220,2012-10-09 16:15:00
11:35 AM,41.0,35.6,81,29.74,10.0,SW,10.4,-,N/A,,Overcast,220,2012-10-09 16:35:00
11:55 AM,41.0,37.4,87,29.74,10.0,WSW,11.5,-,N/A,,Mostly Cloudy,240,2012-10-09 16:55:00
12:15 PM,42.8,37.4,81,29.73,10.0,SW,12.7,-,N/A,,Clear,230,2012-10-09 17:15:00
12:35 PM,42.8,37.4,81,29.73,10.0,WSW,11.5,-,N/A,,Mostly Cloudy,250,2012-10-09 17:35:00
12:55 PM,44.6,32.0,61,29.73,10.0,West,18.4,-,N/A,,Overcast,270,2012-10-09 17:55:00
1:15 PM,46.4,32.0,57,29.72,10.0,West,18.4,26.5,N/A,,Overcast,260,2012-10-09 18:15:00
1:35 PM,44.6,30.2,57,29.72,10.0,West,16.1,21.9,N/A,,Overcast,280,2012-10-09 18:35:00
1:55 PM,44.6,28.4,53,29.72,10.0,West,10.4,20.7,N/A,,Overcast,280,2012-10-09 18:55:00
2:15 PM,44.6,26.6,49,29.72,10.0,West,18.4,28.8,N/A,,Overcast,280,2012-10-09 19:15:00
2:35 PM,44.6,28.4,53,29.73,10.0,West,11.5,25.3,N/A,,Overcast,270,2012-10-09 19:35:00
2:55 PM,44.6,26.6,49,29.73,10.0,West,15.0,26.5,N/A,,Overcast,270,2012-10-09 19:55:00
3:15 PM,44.6,26.6,49,29.74,10.0,West,19.6,25.3,N/A,,Overcast,280,2012-10-09 20:15:00
3:35 PM,44.6,26.6,49,29.74,10.0,West,16.1,-,N/A,,Overcast,280,2012-10-09 20:35:00
3:55 PM,42.8,28.4,57,29.74,10.0,West,16.1,24.2,N/A,,Overcast,280,2012-10-09 20:55:00
4:15 PM,42.8,28.4,57,29.75,10.0,WNW,16.1,21.9,N/A,,Overcast,290,2012-10-09 21:15:00
4:35 PM,42.8,28.4,57,29.76,10.0,West,19.6,25.3,N/A,,Overcast,280,2012-10-09 21:35:00
4:55 PM,42.8,30.2,61,29.77,10.0,West,16.1,21.9,N/A,,Overcast,280,2012-10-09 21:55:00
5:15 PM,42.8,30.2,61,29.77,10.0,West,11.5,19.6,N/A,,Overcast,280,2012-10-09 22:15:00
5:35 PM,42.8,28.4,57,29.78,10.0,WNW,17.3,20.7,N/A,,Overcast,290,2012-10-09 22:35:00
5:55 PM,42.8,28.4,57,29.78,10.0,West,11.5,-,N/A,,Overcast,280,2012-10-09 22:55:00
6:15 PM,41.0,30.2,65,29.80,10.0,WNW,15.0,23.0,N/A,,Overcast,290,2012-10-09 23:15:00
6:35 PM,41.0,32.0,70,29.81,10.0,WNW,13.8,17.3,N/A,,Overcast,290,2012-10-09 23:35:00
6:55 PM,41.0,32.0,70,29.81,10.0,NW,10.4,-,N/A,,Overcast,310,2012-10-09 23:55:00
7:15 PM,37.4,32.0,81,29.82,10.0,WNW,6.9,-,N/A,,Overcast,300,2012-10-10 00:15:00
7:35 PM,37.4,32.0,81,29.84,7.0,NW,9.2,19.6,0.01,Rain,Rain,310,2012-10-10 00:35:00
7:55 PM,37.4,32.0,81,29.84,10.0,NW,10.4,-,0.01,,Overcast,310,2012-10-10 00:55:00
8:15 PM,37.4,32.0,81,29.85,10.0,NW,13.8,17.3,N/A,,Overcast,310,2012-10-10 01:15:00
8:35 PM,37.4,32.0,81,29.86,10.0,NW,9.2,-,N/A,,Overcast,320,2012-10-10 01:35:00
8:55 PM,37.4,32.0,81,29.86,10.0,NW,15.0,23.0,N/A,,Overcast,310,2012-10-10 01:55:00
9:15 PM,37.4,30.2,75,29.87,10.0,NW,13.8,20.7,N/A,,Overcast,320,2012-10-10 02:15:00
9:35 PM,37.4,30.2,75,29.87,10.0,WNW,10.4,-,N/A,,Overcast,300,2012-10-10 02:35:00
9:55 PM,37.4,30.2,75,29.88,10.0,NW,12.7,20.7,N/A,,Overcast,320,2012-10-10 02:55:00
10:15 PM,37.4,28.4,70,29.88,10.0,NW,11.5,-,N/A,,Overcast,310,2012-10-10 03:15:00
10:35 PM,37.4,28.4,70,29.89,10.0,NW,9.2,-,N/A,,Overcast,310,2012-10-10 03:35:00
10:55 PM,37.4,28.4,70,29.89,10.0,NW,6.9,-,N/A,,Overcast,320,2012-10-10 03:55:00
11:15 PM,37.4,28.4,70,29.89,10.0,WNW,8.1,-,N/A,,Overcast,300,2012-10-10 04:15:00
11:35 PM,35.6,28.4,75,29.89,10.0,WNW,9.2,-,N/A,,Overcast,300,2012-10-10 04:35:00
11:55 PM,35.6,26.6,70,29.90,10.0,WNW,11.5,17.3,N/A,,Overcast,290,2012-10-10 04:55:00